User: anonymous   Login
Location: Unspecified
(0.0000°N, 0.0000°E)
Time: 19:59:46
(UTC+00:00)
Language:

TIGRISAT - Orbit

View from above orbital plane
View from above orbital plane
View from above satellite
View from above satellite

Ground track
Ground track

The orbit data is extracted from the following two-line orbital elements,

1 40043U 14033AK  17269.25469967  .00000235  00000-0  42480-4 0  9997
2 40043  97.8416 150.6337 0059585 330.3106  29.4726 14.74023665175721
Epoch (UTC): 26 September 2017 06:06:46
Eccentricity: 0.0059585
inclination: 97.8416°
perigee height: 606 km
apogee height: 690 km
right ascension of ascending node: 150.6337°
argument of perigee: 330.3106°
revolutions per day: 14.74023665
mean anomaly at epoch: 29.4726°
orbit number at epoch: 17572

The dashed part of the orbit path shows where the satellite is in the earth's shadow,  

DLR